| time (UTC) | temp C | wind direction | speed KPH | gust KPH | rain 1hr cm | rain 24hr cm | rain mn cm | humidity % | barometer mb |
| 20260505111555 | 20 | 0.0 | 0.0 | 0.00 | 0.00 | 0.00 | 68 | 1026.9 | |
| 20260505111050 | 20 | 0.0 | 0.0 | 0.00 | 0.00 | 0.00 | 68 | 1026.8 | |
| 20260505110545 | 20 | 0.0 | 0.0 | 0.00 | 0.00 | 0.00 | 68 | 1026.7 | |
| 20260505101947 | 21 | 0.0 | 0.0 | 0.00 | 0.00 | 0.00 | 64 | 1026.4 | |
| 20260505101441 | 20 | 0.0 | 0.0 | 0.00 | 0.00 | 0.00 | 67 | 1026.4 | |
| 20260505100936 | 18 | 0.0 | 0.0 | 0.00 | 0.00 | 0.00 | 70 | 1026.4 | |
| 20260505100431 | 18 | 0.0 | 0.0 | 0.00 | 0.00 | 0.00 | 72 | 1026.4 | |
| 20260505095927 | 18 | 0.0 | 0.0 | 0.00 | 0.00 | 0.00 | 74 | 1026.3 | |
| 20260505095423 | 17 | 0.0 | 0.0 | 0.00 | 0.00 | 0.00 | 75 | 1026.2 | |
| 20260505094919 | 17 | 0.0 | 0.0 | 0.00 | 0.00 | 0.00 | 76 | 1026.1 | |
| 20260505093907 | 17 | 0.0 | 0.0 | 0.00 | 0.00 | 0.00 | 76 | 1026.1 | |
| 20260505093401 | 17 | 0.0 | 0.0 | 0.00 | 0.00 | 0.00 | 77 | 1026.0 | |
| 20260505092854 | 17 | 0.0 | 0.0 | 0.00 | 0.00 | 0.00 | 77 | 1025.9 | |
| 20260505092350 | 17 | 0.0 | 0.0 | 0.00 | 0.00 | 0.00 | 77 | 1025.8 | |
| 20260505091845 | 17 | 0.0 | 0.0 | 0.00 | 0.00 | 0.00 | 77 | 1025.8 | |
| 20260505090831 | 17 | 0.0 | 0.0 | 0.00 | 0.00 | 0.00 | 77 | 1025.8 | |
| 20260505090326 | 17 | 0.0 | 0.0 | 0.00 | 0.00 | 0.00 | 77 | 1025.7 | |
| 20260505085822 | 17 | 0.0 | 0.0 | 0.00 | 0.00 | 0.00 | 77 | 1025.6 | |
| 20260505085316 | 17 | 0.0 | 0.0 | 0.00 | 0.00 | 0.00 | 77 | 1025.5 | |
| 20260505084303 | 17 | 0.0 | 0.0 | 0.00 | 0.00 | 0.00 | 77 | 1025.4 | |
| 20260505083758 | 17 | 0.0 | 0.0 | 0.00 | 0.00 | 0.00 | 77 | 1025.3 | |
| 20260505083252 | 17 | 0.0 | 0.0 | 0.00 | 0.00 | 0.00 | 77 | 1025.2 | |
| 20260505082744 | 17 | 0.0 | 0.0 | 0.00 | 0.00 | 0.00 | 77 | 1025.2 | |
| 20260505082236 | 17 | 0.0 | 0.0 | 0.00 | 0.00 | 0.00 | 77 | 1025.1 | |
| 20260505081730 | 17 | 0.0 | 0.0 | 0.00 | 0.00 | 0.00 | 76 | 1025.1 | |
| 20260505081226 | 17 | 0.0 | 0.0 | 0.00 | 0.00 | 0.00 | 76 | 1025.0 | |
| 20260505080211 | 17 | 0.0 | 0.0 | 0.00 | 0.00 | 0.00 | 77 | 1025.0 | |
| 20260505075705 | 17 | 0.0 | 0.0 | 0.00 | 0.00 | 0.00 | 76 | 1025.0 | |
| 20260505075158 | 17 | 0.0 | 0.0 | 0.00 | 0.00 | 0.00 | 76 | 1024.9 | |
| 20260505074653 | 17 | 0.0 | 0.0 | 0.00 | 0.00 | 0.00 | 76 | 1024.9 | |
| 20260505074148 | 17 | 0.0 | 0.0 | 0.00 | 0.00 | 0.00 | 76 | 1024.9 | |
| 20260505073136 | 17 | 0.0 | 0.0 | 0.00 | 0.00 | 0.00 | 76 | 1024.9 | |
| 20260505072629 | 17 | 0.0 | 0.0 | 0.00 | 0.00 | 0.00 | 76 | 1025.0 | |
| 20260505072124 | 17 | 0.0 | 0.0 | 0.00 | 0.00 | 0.00 | 76 | 1025.0 | |
| 20260505071108 | 17 | 0.0 | 0.0 | 0.00 | 0.00 | 0.00 | 76 | 1025.1 | |
| 20260505070604 | 17 | 0.0 | 0.0 | 0.00 | 0.00 | 0.00 | 76 | 1025.2 | |
| 20260505070059 | 17 | 0.0 | 0.0 | 0.00 | 0.00 | 0.00 | 76 | 1025.2 | |
| 20260505065043 | 17 | 0.0 | 0.0 | 0.00 | 0.00 | 0.00 | 76 | 1025.2 | |
| 20260505064538 | 17 | 0.0 | 0.0 | 0.00 | 0.00 | 0.00 | 76 | 1025.2 | |
| 20260505064034 | 17 | 0.0 | 0.0 | 0.00 | 0.00 | 0.00 | 76 | 1025.2 | |
| 20260505063527 | 17 | 0.0 | 0.0 | 0.00 | 0.00 | 0.00 | 76 | 1025.3 | |
| 20260505063022 | 17 | 0.0 | 0.0 | 0.00 | 0.00 | 0.00 | 76 | 1025.3 | |
| 20260505062516 | 17 | 0.0 | 0.0 | 0.00 | 0.00 | 0.00 | 76 | 1025.3 | |
| 20260505062012 | 17 | 0.0 | 0.0 | 0.00 | 0.00 | 0.00 | 76 | 1025.2 | |
| 20260505061508 | 17 | 0.0 | 0.0 | 0.00 | 0.00 | 0.00 | 76 | 1025.3 | |
| 20260505060457 | 17 | 0.0 | 0.0 | 0.00 | 0.00 | 0.00 | 76 | 1025.3 | |
| 20260505055952 | 17 | 0.0 | 0.0 | 0.00 | 0.00 | 0.00 | 76 | 1025.3 | |
| 20260505054936 | 18 | 0.0 | 0.0 | 0.00 | 0.00 | 0.00 | 76 | 1025.3 | |
| 20260505053921 | 18 | 0.0 | 0.0 | 0.00 | 0.00 | 0.00 | 75 | 1025.3 | |
| 20260505053416 | 18 | 0.0 | 0.0 | 0.00 | 0.00 | 0.00 | 75 | 1025.4 | |
| 20260505052910 | 18 | 0.0 | 0.0 | 0.00 | 0.00 | 0.00 | 75 | 1025.3 | |
| 20260505052403 | 18 | 0.0 | 0.0 | 0.00 | 0.00 | 0.00 | 75 | 1025.3 | |
| 20260505051857 | 18 | 0.0 | 0.0 | 0.00 | 0.00 | 0.00 | 75 | 1025.4 | |
| 20260505051352 | 18 | 0.0 | 0.0 | 0.00 | 0.00 | 0.00 | 75 | 1025.3 | |
| 20260505050339 | 18 | 0.0 | 0.0 | 0.00 | 0.00 | 0.00 | 75 | 1025.4 | |
| 20260505041738 | 18 | 0.0 | 0.0 | 0.00 | 0.00 | 0.00 | 75 | 1025.6 | |
| 20260505041233 | 18 | 0.0 | 0.0 | 0.00 | 0.00 | 0.00 | 75 | 1025.6 | |
| 20260505040726 | 18 | 0.0 | 0.0 | 0.00 | 0.00 | 0.00 | 75 | 1025.7 | |
| 20260505040219 | 18 | 0.0 | 0.0 | 0.00 | 0.00 | 0.00 | 75 | 1025.7 | |
| 20260505034657 | 18 | 0.0 | 0.0 | 0.00 | 0.00 | 0.00 | 75 | 1025.8 | |
| 20260505034151 | 18 | 0.0 | 0.0 | 0.00 | 0.00 | 0.00 | 75 | 1025.8 | |
| 20260505033646 | 18 | 0.0 | 0.0 | 0.00 | 0.00 | 0.00 | 74 | 1025.8 | |
| 20260505033138 | 18 | 0.0 | 0.0 | 0.00 | 0.00 | 0.00 | 74 | 1025.8 | |
| 20260505032632 | 18 | 0.0 | 0.0 | 0.00 | 0.00 | 0.00 | 74 | 1025.8 | |
| 20260505032126 | 18 | 0.0 | 0.0 | 0.00 | 0.00 | 0.00 | 74 | 1025.8 | |
| 20260505030608 | 18 | 0.0 | 0.0 | 0.00 | 0.00 | 0.00 | 74 | 1025.8 | |
| 20260505030059 | 18 | 0.0 | 0.0 | 0.00 | 0.00 | 0.00 | 74 | 1025.9 | |
| 20260505025554 | 18 | 0.0 | 0.0 | 0.00 | 0.00 | 0.00 | 74 | 1025.9 | |
| 20260505025049 | 18 | 0.0 | 0.0 | 0.00 | 0.00 | 0.00 | 74 | 1025.9 | |
| 20260505024543 | 18 | 0.0 | 0.0 | 0.00 | 0.00 | 0.00 | 74 | 1025.9 | |
| 20260505024038 | 18 | 0.0 | 0.0 | 0.00 | 0.00 | 0.00 | 74 | 1025.9 | |
| 20260505023028 | 18 | 0.0 | 0.0 | 0.00 | 0.00 | 0.00 | 74 | 1025.9 | |
| 20260505022521 | 18 | 0.0 | 0.0 | 0.00 | 0.00 | 0.00 | 74 | 1025.9 | |
| 20260505022014 | 19 | 0.0 | 0.0 | 0.00 | 0.00 | 0.00 | 73 | 1025.9 | |
| 20260505021508 | 19 | 0.0 | 0.0 | 0.00 | 0.00 | 0.00 | 73 | 1025.9 | |
| 20260505021001 | 19 | 0.0 | 0.0 | 0.00 | 0.00 | 0.00 | 73 | 1026.0 | |
| 20260505020455 | 19 | 0.0 | 0.0 | 0.00 | 0.00 | 0.00 | 73 | 1026.0 | |
| 20260505015948 | 19 | 0.0 | 0.0 | 0.00 | 0.00 | 0.00 | 73 | 1026.0 | |
| 20260505015443 | 19 | 0.0 | 0.0 | 0.00 | 0.00 | 0.00 | 73 | 1026.0 | |
| 20260505014936 | 19 | 0.0 | 0.0 | 0.00 | 0.00 | 0.00 | 73 | 1026.0 | |
| 20260505014430 | 19 | 0.0 | 0.0 | 0.00 | 0.00 | 0.00 | 73 | 1025.9 | |
| 20260505013925 | 19 | 0.0 | 0.0 | 0.00 | 0.00 | 0.00 | 73 | 1025.9 | |
| 20260505013420 | 19 | 0.0 | 0.0 | 0.00 | 0.00 | 0.00 | 73 | 1025.9 | |
| 20260505012406 | 20 | 0.0 | 0.0 | 0.00 | 0.00 | 0.00 | 73 | 1026.0 | |
| 20260505011901 | 20 | 0.0 | 0.0 | 0.00 | 0.00 | 0.00 | 73 | 1025.9 | |
| 20260505011356 | 20 | 0.0 | 0.0 | 0.00 | 0.00 | 0.00 | 73 | 1025.9 | |
| 20260505010848 | 20 | 0.0 | 0.0 | 0.00 | 0.00 | 0.00 | 73 | 1025.9 | |
| 20260505010342 | 20 | 0.0 | 0.0 | 0.00 | 0.00 | 0.00 | 74 | 1025.9 | |
| 20260505005837 | 20 | 0.0 | 0.0 | 0.00 | 0.00 | 0.00 | 74 | 1025.8 | |
| 20260505005333 | 20 | 0.0 | 0.0 | 0.00 | 0.00 | 0.00 | 74 | 1025.8 | |
| 20260505004827 | 20 | 0.0 | 0.0 | 0.00 | 0.00 | 0.00 | 74 | 1025.7 | |
| 20260505004322 | 20 | 0.0 | 0.0 | 0.00 | 0.00 | 0.00 | 74 | 1025.7 | |
| 20260505003308 | 20 | 0.0 | 0.0 | 0.00 | 0.00 | 0.00 | 74 | 1025.7 | |
| 20260505002802 | 20 | 0.0 | 0.0 | 0.00 | 0.00 | 0.00 | 74 | 1025.6 | |
| 20260505000736 | 20 | 0.0 | 0.0 | 0.00 | 0.00 | 0.00 | 74 | 1025.4 | |
| 20260505000230 | 20 | 0.0 | 0.0 | 0.00 | 0.00 | 0.00 | 74 | 1025.4 | |
| 20260504235722 | 20 | 0.0 | 0.0 | 0.00 | 0.00 | 0.00 | 74 | 1025.3 | |
| 20260504235216 | 20 | 0.0 | 0.0 | 0.00 | 0.00 | 0.00 | 74 | 1025.3 | |
| 20260504234204 | 20 | 0.0 | 0.0 | 0.00 | 0.00 | 0.00 | 74 | 1025.2 | |
| 20260504233659 | 20 | 0.0 | 0.0 | 0.00 | 0.00 | 0.00 | 74 | 1025.2 | |
| 20260504233152 | 20 | 0.0 | 0.0 | 0.00 | 0.00 | 0.00 | 74 | 1025.2 | |
| 20260504232646 | 20 | 0.0 | 0.0 | 0.00 | 0.00 | 0.00 | 73 | 1025.1 | |
| 20260504232141 | 20 | 0.0 | 0.0 | 0.00 | 0.00 | 0.00 | 74 | 1025.0 | |
| 20260504231635 | 20 | 0.0 | 0.0 | 0.00 | 0.00 | 0.00 | 74 | 1025.0 | |
| 20260504230624 | 20 | 0.0 | 0.0 | 0.00 | 0.00 | 0.00 | 74 | 1024.9 | |
| 20260504230117 | 20 | 0.0 | 0.0 | 0.00 | 0.00 | 0.00 | 75 | 1024.9 | |
| 20260504225102 | 20 | 0.0 | 0.0 | 0.00 | 0.00 | 0.00 | 75 | 1024.8 | |
| 20260504224558 | 20 | 0.0 | 0.0 | 0.00 | 0.00 | 0.00 | 75 | 1024.8 | |
| 20260504224054 | 20 | 0.0 | 0.0 | 0.00 | 0.00 | 0.00 | 75 | 1024.7 | |
| 20260504223550 | 20 | 0.0 | 0.0 | 0.00 | 0.00 | 0.00 | 75 | 1024.7 | |
| 20260504222535 | 20 | 0.0 | 0.0 | 0.00 | 0.00 | 0.00 | 75 | 1024.6 | |
| 20260504222029 | 20 | 0.0 | 0.0 | 0.00 | 0.00 | 0.00 | 76 | 1024.5 | |
| 20260504221525 | 20 | 0.0 | 0.0 | 0.00 | 0.00 | 0.00 | 76 | 1024.4 | |
| 20260504221019 | 19 | 0.0 | 0.0 | 0.00 | 0.00 | 0.00 | 77 | 1024.2 | |
| 20260504220002 | 19 | 0.0 | 0.0 | 0.00 | 0.00 | 0.00 | 78 | 1024.3 | |
| 20260504215456 | 19 | 0.0 | 0.0 | 0.00 | 0.00 | 0.00 | 78 | 1024.3 | |
| 20260504214952 | 19 | 0.0 | 0.0 | 0.00 | 0.00 | 0.00 | 77 | 1024.2 | |
| 20260504214448 | 19 | 0.0 | 0.0 | 0.00 | 0.00 | 0.00 | 78 | 1024.1 | |
| 20260504213943 | 19 | 0.0 | 0.0 | 0.00 | 0.00 | 0.00 | 77 | 1024.0 | |
| 20260504213409 | 19 | 0.0 | 0.0 | 0.00 | 0.00 | 0.00 | 78 | 1023.9 | |
| 20260504212905 | 19 | 0.0 | 0.0 | 0.00 | 0.00 | 0.00 | 77 | 1023.8 | |
| 20260504212400 | 20 | 0.0 | 0.0 | 0.00 | 0.00 | 0.00 | 76 | 1023.8 | |
| 20260504211853 | 20 | 0.0 | 0.0 | 0.00 | 0.00 | 0.00 | 75 | 1023.8 | |
| 20260504210418 | 20 | 0 | 0.0 | 0.0 | 0.00 | 0.00 | 0.00 | 74 | 1023.5 |
| 20260504205913 | 21 | 0 | 0.0 | 0.0 | 0.00 | 0.00 | 0.00 | 70 | 1023.5 |
| 20260504205408 | 21 | 0 | 0.0 | 0.0 | 0.00 | 0.00 | 0.00 | 68 | 1023.4 |
| 20260504204901 | 22 | 0 | 0.0 | 0.0 | 0.00 | 0.00 | 0.00 | 67 | 1023.3 |
| 20260504202831 | 22 | 0 | 0.0 | 0.0 | 0.00 | 0.00 | 0.00 | 65 | 1023.1 |
| 20260504201819 | 22 | 0 | 0.0 | 0.0 | 0.00 | 0.00 | 0.00 | 62 | 1023.1 |
| 20260504201314 | 23 | 0 | 0.0 | 0.0 | 0.00 | 0.00 | 0.00 | 61 | 1023.0 |
| 20260504200807 | 23 | 0 | 0.0 | 0.0 | 0.00 | 0.00 | 0.00 | 60 | 1023.1 |
| 20260504200301 | 23 | 0 | 0.0 | 0.0 | 0.00 | 0.00 | 0.00 | 59 | 1023.0 |
| 20260504195756 | 23 | 0 | 0.0 | 0.0 | 0.00 | 0.00 | 0.00 | 56 | 1023.0 |
| 20260504195249 | 23 | 0 | 0.0 | 0.0 | 0.00 | 0.00 | 0.00 | 56 | 1022.9 |
| 20260504194741 | 23 | 0 | 0.0 | 0.0 | 0.00 | 0.00 | 0.00 | 56 | 1022.9 |
| 20260504194237 | 23 | 0 | 0.0 | 0.0 | 0.00 | 0.00 | 0.00 | 56 | 1022.8 |
| 20260504193732 | 23 | 0 | 0.0 | 0.0 | 0.00 | 0.00 | 0.00 | 55 | 1022.7 |
| 20260504193227 | 23 | 0 | 0.0 | 0.0 | 0.00 | 0.00 | 0.00 | 55 | 1022.7 |
| 20260504192720 | 23 | 0 | 0.0 | 0.0 | 0.00 | 0.00 | 0.00 | 55 | 1022.8 |
| 20260504192215 | 23 | 0 | 0.0 | 0.0 | 0.00 | 0.00 | 0.00 | 54 | 1022.7 |
| 20260504191710 | 23 | 0 | 0.0 | 0.0 | 0.00 | 0.00 | 0.00 | 55 | 1022.6 |
| 20260504191206 | 23 | 0 | 0.0 | 0.0 | 0.00 | 0.00 | 0.00 | 55 | 1022.5 |
| 20260504190152 | 24 | 0 | 0.0 | 0.0 | 0.00 | 0.00 | 0.00 | 54 | 1022.5 |
| 20260504185645 | 24 | 0 | 0.0 | 0.0 | 0.00 | 0.00 | 0.00 | 54 | 1022.4 |
| 20260504184630 | 24 | 0 | 0.0 | 0.0 | 0.00 | 0.00 | 0.00 | 54 | 1022.5 |
| 20260504183617 | 24 | 0 | 0.0 | 0.0 | 0.00 | 0.00 | 0.00 | 54 | 1022.6 |
| 20260504183111 | 24 | 0 | 0.0 | 0.0 | 0.00 | 0.00 | 0.00 | 53 | 1022.5 |
| 20260504182606 | 24 | 0 | 0.0 | 0.0 | 0.00 | 0.00 | 0.00 | 53 | 1022.4 |
| 20260504182059 | 24 | 0 | 0.0 | 0.0 | 0.00 | 0.00 | 0.00 | 53 | 1022.5 |
| 20260504181553 | 24 | 0 | 0.0 | 0.0 | 0.00 | 0.00 | 0.00 | 53 | 1022.6 |
| 20260504181048 | 24 | 0 | 0.0 | 0.0 | 0.00 | 0.00 | 0.00 | 53 | 1022.6 |
| 20260504180034 | 24 | 0 | 0.0 | 0.0 | 0.00 | 0.00 | 0.00 | 52 | 1022.6 |
| 20260504175528 | 24 | 0 | 0.0 | 0.0 | 0.00 | 0.00 | 0.00 | 53 | 1022.6 |
| 20260504175021 | 24 | 0 | 0.0 | 0.0 | 0.00 | 0.00 | 0.00 | 53 | 1022.7 |
| 20260504174517 | 24 | 0 | 0.0 | 0.0 | 0.00 | 0.00 | 0.00 | 53 | 1022.8 |
| 20260504173505 | 24 | 0 | 0.0 | 0.0 | 0.00 | 0.00 | 0.00 | 52 | 1022.7 |
| 20260504172958 | 24 | 0 | 0.0 | 0.0 | 0.00 | 0.00 | 0.00 | 52 | 1022.7 |
| 20260504172453 | 25 | 0 | 0.0 | 0.0 | 0.00 | 0.00 | 0.00 | 51 | 1022.8 |
| 20260504171949 | 25 | 0 | 0.0 | 0.0 | 0.00 | 0.00 | 0.00 | 50 | 1022.8 |
| 20260504171445 | 25 | 0 | 0.0 | 0.0 | 0.00 | 0.00 | 0.00 | 51 | 1023.0 |
| 20260504170939 | 25 | 0 | 0.0 | 0.0 | 0.00 | 0.00 | 0.00 | 52 | 1022.9 |
| 20260504170433 | 25 | 0 | 0.0 | 0.0 | 0.00 | 0.00 | 0.00 | 50 | 1022.9 |
| 20260504150714 | 24 | 0 | 0.0 | 0.0 | 0.00 | 0.00 | 0.00 | 52 | 1024.0 |
| 20260504150209 | 24 | 0 | 0.0 | 0.0 | 0.00 | 0.00 | 0.00 | 51 | 1024.0 |
| 20260504141106 | 23 | 0 | 0.0 | 0.0 | 0.00 | 0.00 | 0.00 | 52 | 1024.7 |
| 20260504140600 | 23 | 0 | 0.0 | 0.0 | 0.00 | 0.00 | 0.00 | 52 | 1024.8 |
| 20260504130443 | 22 | 0 | 0.0 | 0.0 | 0.00 | 0.00 | 0.00 | 57 | 1025.3 |